Location: Lake Almanor
(40.2485°N, 121.1442°W)
Time: 07:07:34
(UTC-08:00)

STARLINK-1086 - Pass Details

Date: 01 February 2020
Orbit: 349 x 351 km, 53.0° (Epoch: 18 February)

Event Time Altitude Azimuth Distance (km) Brightness Sun altitude
Rises 18:34:16 0° 307° (NW) 2,164 7.3 -13.9°
Reaches altitude 10° 18:36:17 10° 305° (NW) 1,318 6.2 -14.3°
Maximum altitude 18:39:12 69° 222° (SW) 379 2.9 -14.8°
Enters shadow 18:41:04 20° 141° (SE) 886 4.4 -15.2°
